Terminal Aerodrome Forecast
Issued by NWS

Home | Current Version | Previous Version | Text Only | Print | Product List | Glossary On
Versions: 1 2 3 4 5 6 7 8 9 10 11 12 13 14 15 16
000
FTUS46 KMTR 202300
TAFOAK
TAF
KOAK 202327Z 2100/2206 29014KT P6SM SCT200
     FM210400 29008KT P6SM FEW010 SCT200
     FM212000 26012KT P6SM BKN200
     FM220400 24008KT P6SM BKN120=

USA.gov is the U.S. government's official web portal to all federal, state and local government web resources and services.